Погода в Хихифо

Тонга     15°57′10″S   173°47′44″W
В апреле 2022 года жителям России запретили посещать сайт meteo.paraplan.net по решению Генеральной прокуратуры. Аудитория сайта уменьшилась в 10 раз. Владельцы сайта не видят смысла в поддержке погодного сервера в таких условиях. Сайт будет закрыт в октябре.
темп.,
°C
ветер,
м/с
пор.,
м/с
влажн.,
%
обл.,
%
осадки,
мм/ч
давл.,
гПа
погр.,
м
1 октября, сб
сб101:00+26вюв877623 0.1 1014907
04:00+26вюв7772100 0.1 10131079
07:00+26вюв8876100 0.2 1015775
10:00+26вюв1097739 0.3 1015898
13:00+26вюв987560 0.3 1014956
16:00+26вюв9973100 0.0 10131029
19:00+26вюв9975100 0.1 10141027
22:00+26вюв10107590 0.0 1015871
2 октября, вс
вс201:00+26вюв9976100 0.0 1014791
04:00+26вюв997668 0.0 1013803
07:00+26вюв997491 0.1 10141006
10:00+26в997197 0.0 10151122
13:00+26в8871100 0.0 10131140
16:00+26вюв7772100 0.0 10111070
19:00+26в8872100 0.1 10131079
22:00+26в8867100 0.0 10141281
3 октября, пн
пн301:00+26в8868100 0.0 10131278
04:00+26вюв886496 0.0 10121385
07:00+27в78669 0.0 10131372
10:00+26в887399 0.0 1014927
13:00+26в8976100 0.1 1013979
16:00+26в911787 0.1 1011992
19:00+26в9107816 0.3 1012905
22:00+26в910770 0.3 10141008
4 октября, вт
вт401:00+26в887673 0.3 1014881
04:00+26в887914 0.0 1013828
07:00+26в997925 0.2 1015868
10:00+26в998027 0.4 1016843
13:00+26в9108128 0.7 1013845
16:00+27в9108115 0.2 1012875
19:00+27всв89815 0.7 1013797
22:00+27всв898123 1.0 1015773
5 октября, ср
ср501:00+26всв798214 1.6 1014744
04:00+27всв78795 0.2 1013872
07:00+27всв68805 0.8 1015826
10:00+27всв79819 0.1 1015793
13:00+27всв78805 0.1 1014827
16:00+27всв78795 0.1 1012886
19:00+27в68825 0.1 1014821
22:00+27всв788124 0.3 1015745